{"data":{"norad_id":58769,"intl_designator":"2024-011E","name":"STARLINK-31146","alt_names":[],"object_type":"PAYLOAD","status":"ACTIVE","operator":null,"country":"US","launch_date":"2024-01-14","launch_site_code":"AFWTR","launch_vehicle":null,"mission":null,"orbit_class":"UNKNOWN","rcs_meters":null,"size_class":null,"mass_kg":null,"dimensions":null,"purposes":["comms"],"wikipedia_slug":null,"has_3d_model":false,"image_url":null,"decayed_at":null,"tle_current":{"epoch":"2026-09-20T01:51:17.638272Z","epoch_age_seconds":189006,"freshness":"STALE","line1":"1 58769U 24011E   26263.07728748 -.00009347  00000+0 -26554-3 0  9994","line2":"2 58769  53.1599 187.8104 0001750 103.0808 257.0390 15.34433531150072","mean_motion":15.34433531,"eccentricity":0.000175,"inclination_deg":53.1599,"raan_deg":187.8104,"arg_perigee_deg":103.0808,"mean_anomaly_deg":257.039,"bstar":-0.00026554,"rev_number":15007,"period_min":93.845707285968,"perigee_km":461.40645122199,"apogee_km":463.80071042528,"semimajor_km":6840.7405808236,"source":"CELESTRAK","updated_at":"2026-09-21T09:00:33.957231Z"}}}